SM7GXQ Farjestaden SE current weather conditions

sailwx.info

Wind from 210 at 1 knots gusting 5

Air temperature 3.9° C
Dewpoint 2.9° C

Last reported at 2019-Dec-12 17:45 UTC.
Time now 2019-Dec-12 18:23 UTC

Location: N 56°39' E 016°28'.
View on Google Maps.

See reports from other nearby stations

  
Tides and Currents Weather Stations Pressure Air Temp Water Temp Dewpoint Dewpoint Depression Visibility Wind Speed Wind Dir Waves Ship Positions
date/time (UTC)wind fromknots sea level pressurealtimeterstation pressurevisibilityair tempwater tempwave heightnotes
2019-Dec-12 17:45 210 1 gusting 5 3.9
2019-Dec-12 17:15 233 2 gusting 6 3.9
2019-Dec-12 16:45 210 1 gusting 6 3.9
2019-Dec-12 16:30 211 2 gusting 6 3.9
2019-Dec-12 16:15 223 1 gusting 10 3.9
2019-Dec-12 16:00 200 3 gusting 7 3.9
2019-Dec-12 15:45 203 1 gusting 8 3.3
2019-Dec-12 15:30 156 2 gusting 6 3.3
2019-Dec-12 15:00 145 3 gusting 7 3.3
2019-Dec-12 14:45 151 2 gusting 6 3.3
2019-Dec-12 14:30 157 4 gusting 7 3.3
2019-Dec-12 14:15 152 2 gusting 6 3.3
2019-Dec-12 13:45 157 5 gusting 8 3.3
2019-Dec-12 13:00 167 3 gusting 10 3.3
2019-Dec-12 12:45 156 4 gusting 7 2.8
2019-Dec-12 12:30 145 4 gusting 10 2.8
2019-Dec-12 12:15 154 5 gusting 10 2.8
2019-Dec-12 12:00 156 4 gusting 7 3.3
2019-Dec-12 11:45 156 3 gusting 6 3.3
2019-Dec-12 11:30 149 4 gusting 10 3.3
2019-Dec-12 10:45 168 4 gusting 8 3.3
2019-Dec-12 10:30 156 5 gusting 10 3.3
2019-Dec-12 10:15 153 4 gusting 10 3.3
2019-Dec-12 10:00 149 5 gusting 10 3.3
2019-Dec-12 09:30 159 4 gusting 7 3.3
2019-Dec-12 09:15 155 4 gusting 10 3.3
2019-Dec-12 09:00 159 6 gusting 10 3.3
2019-Dec-12 08:45 154 5 gusting 10 3.3
2019-Dec-12 08:30 143 5 gusting 7 3.3
2019-Dec-12 08:15 162 3 gusting 7 3.3
2019-Dec-12 07:45 141 4 gusting 8 3.3
2019-Dec-12 07:30 158 4 gusting 10 3.3
2019-Dec-12 06:45 165 4 gusting 10 3.3
2019-Dec-12 06:15 166 5 gusting 8 3.3
2019-Dec-12 06:00 164 4 gusting 8 3.3
2019-Dec-12 05:45 146 4 gusting 11 3.3
2019-Dec-12 05:15 161 5 gusting 8 3.3
2019-Dec-12 04:30 163 4 gusting 7 3.3
2019-Dec-12 04:15 156 4 gusting 8 3.3
2019-Dec-12 04:00 139 3 gusting 6 3.3
2019-Dec-12 03:30 143 4 gusting 5 3.3
2019-Dec-12 03:15 154 4 gusting 5 3.3
2019-Dec-12 03:00 165 1 gusting 5 3.3
2019-Dec-12 02:30 165 2 gusting 6 3.3
2019-Dec-12 02:15 143 3 gusting 8 3.3
2019-Dec-12 01:00 168 2 gusting 6 3.3
2019-Dec-12 00:45 170 2 gusting 6 3.9
2019-Dec-12 00:30 183 3 gusting 7 3.9
2019-Dec-11 23:45 134 2 gusting 6 3.9
2019-Dec-11 23:30 157 2 gusting 6 3.9
2019-Dec-11 23:15 180 2 gusting 6 3.9
2019-Dec-11 22:30 152 4 gusting 10 3.9
2019-Dec-11 22:00 192 3 gusting 8 3.9
2019-Dec-11 21:30 166 3 gusting 7 3.9
2019-Dec-11 21:15 171 3 gusting 7 3.9
2019-Dec-11 20:45 170 2 gusting 7 3.9
2019-Dec-11 20:30 183 1 gusting 7 3.9
2019-Dec-11 20:15 184 1 gusting 10 3.9
2019-Dec-11 19:45 172 4 gusting 6 3.9
2019-Dec-11 19:30 177 4 gusting 8 4.4
2019-Dec-11 19:15 183 2 gusting 7 4.4
2019-Dec-11 18:45 179 4 gusting 6 4.4
2019-Dec-11 18:30 175 2 gusting 7 4.4
2019-Dec-11 18:00 177 3 gusting 7 4.4
2019-Dec-11 17:45 181 4 gusting 11 4.4
2019-Dec-11 17:30 169 3 gusting 12 4.4
2019-Dec-11 16:45 172 3 gusting 10 5.0
2019-Dec-11 16:00 186 4 gusting 10 5.0
2019-Dec-11 15:45 182 3 gusting 10 5.0
2019-Dec-11 15:30 184 4 gusting 12 5.0
2019-Dec-11 15:00 201 5 gusting 10 5.0
2019-Dec-11 14:45 186 3 gusting 10 5.0
2019-Dec-11 14:30 190 3 gusting 7 5.0
2019-Dec-11 14:15 189 3 gusting 11 5.0
2019-Dec-11 13:45 189 2 gusting 8 5.0
2019-Dec-11 13:15 188 4 gusting 13 5.6
2019-Dec-11 12:45 187 6 gusting 13 5.6
2019-Dec-11 12:30 185 4 gusting 13 5.0
2019-Dec-11 12:15 185 5 gusting 17 5.0
2019-Dec-11 12:00 191 5 gusting 11 5.0
2019-Dec-11 11:45 191 6 gusting 11 5.0
2019-Dec-11 11:30 195 5 gusting 12 5.0
2019-Dec-11 11:00 189 4 gusting 13 5.0
2019-Dec-11 10:45 200 5 gusting 11 5.0
2019-Dec-11 10:30 210 3 gusting 12 5.0
2019-Dec-11 10:00 199 5 gusting 15 5.0
2019-Dec-11 09:00 199 6 gusting 13 5.0
2019-Dec-11 08:45 201 6 gusting 13 5.6
2019-Dec-11 08:30 196 7 gusting 19 5.6
2019-Dec-11 08:15 193 6 gusting 15 5.6
2019-Dec-11 08:00 198 8 gusting 21 5.6
2019-Dec-11 07:30 201 6 gusting 17 5.6
2019-Dec-11 07:15 187 5 gusting 19 5.6
2019-Dec-11 06:45 168 7 gusting 21 5.6
2019-Dec-11 06:30 174 7 gusting 22 5.6
2019-Dec-11 06:15 175 7 gusting 19 5.6
2019-Dec-11 06:00 195 7 gusting 18 5.6
2019-Dec-11 05:30 191 7 gusting 21 5.6
2019-Dec-11 05:15 194 8 gusting 21 5.6
2019-Dec-11 05:00 196 6 gusting 19 5.6
2019-Dec-11 04:45 182 6 gusting 18 5.6
2019-Dec-11 04:30 185 9 gusting 20 5.6
2019-Dec-11 04:15 195 7 gusting 21 5.6
2019-Dec-11 04:00 192 9 gusting 19 5.6
2019-Dec-11 02:45 192 7 gusting 22 5.0
2019-Dec-11 02:15 188 6 gusting 19 5.0
2019-Dec-11 02:00 179 7 gusting 17 5.0
2019-Dec-11 01:30 180 7 gusting 14 5.0
2019-Dec-11 01:15 172 7 gusting 15 4.4
2019-Dec-11 00:45 178 6 gusting 12 4.4
2019-Dec-11 00:30 184 6 gusting 12 4.4
2019-Dec-11 00:15 192 5 gusting 15 4.4
2019-Dec-11 00:00 177 5 gusting 13 3.9
2019-Dec-10 23:30 175 5 gusting 11 3.9
2019-Dec-10 23:15 167 5 gusting 11 3.3
2019-Dec-10 23:00 149 5 gusting 8 2.8
2019-Dec-10 22:45 155 4 gusting 10 2.2
2019-Dec-10 22:30 153 5 gusting 10 1.7
2019-Dec-10 22:15 155 6 gusting 10 1.7
2019-Dec-10 22:00 155 5 gusting 11 1.7
2019-Dec-10 21:00 159 5 gusting 8 0.6
2019-Dec-10 20:45 160 5 gusting 10 -0.0
2019-Dec-10 20:15 146 5 gusting 6 -0.0
2019-Dec-10 20:00 143 4 gusting 6 -0.6
2019-Dec-10 19:45 141 2 gusting 4 -0.6
2019-Dec-10 19:30 169 0 gusting 4 -0.0
2019-Dec-10 19:15 177 1 gusting 6 -0.6
2019-Dec-10 19:00 161 2 gusting 5 -0.6
2019-Dec-10 18:45 156 1 gusting 5 -0.6
2019-Dec-10 18:30 185 1 gusting 4 -1.1
2019-Dec-10 18:00 156 1 gusting 2 -1.1